Location: Unspecified
(0.0000°N, 0.0000°E)
Time: 19:48:32
(UTC+00:00)

CZ-3C DEB - Pass Details

Date: 15 March 2026
Orbit: 717 x 38360 km, 18.5° (Epoch: 25 March)

Event Time Altitude Azimuth Distance (km) Brightness Sun altitude
Rises 08:04:23 0° 276° (W) 10,870 ? 28.8°
Reaches altitude 10° 08:10:26 10° 279° (W) 11,506 ? 30.3°
Maximum altitude 09:57:27 49° 303° (WNW) 28,036 ? 57.1°
Drops below altitude 10° 16:43:09 10° 284° (WNW) 30,226 ? 21.4°
Enters shadow 18:52:00 - 131° (SE) 3,473 ? -10.8°
